SL-14 DEB, 47089

Orbit data source: Space-Track

SL-14 DEB, 47089 is space debris in LEO originally from a launch on Thu, 15 Aug 1991 UTC launched from the Plesetsk Missile And Space Complex (PKMTR). Debris objects in space refer to the collection of defunct objects orbiting the Earth. Examples of debris include non-operational satellites, rocket bodies, and fragments generated from explosions, collisions, or faulty payload assembly.

Loading next visibility...
Identifier
47089, 1991-056DP
Orbit
LEO
Country
Flag of CISCIS
Related business
Manufacturer
Unknown
Mission
Spacecraft
Bus & Motor
Unknown
Mass
Unknown
Launch date (UTC)
1991-08-15 (34 years ago)
Launch vehicle
Unknown
Launch site
Plesetsk Missile And Space Complex (PKMTR)
Object type
Payload
Rocket body
Debris
Shape & HBR
Unknown shape, 0.1 m
Radar Cross Section
Small (<0.1 m²)

Expand to show TLE details & history
Last TLE update: 3 days ago

TLE from 3 days ago
0 SL-14 DEB
1 47089U 91056DP  25286.20971526  .00000092  00000-0  13287-3 0  9999
2 47089  82.5970 266.8289 0187256 157.8717 203.0638 13.38357665241340
Epoch: 2025-10-13T05:01Z
TLE epoch observation values (Epoch: 2025-10-13T05:01:59.398Z)
Latitude
-0.00001°
Longitude
169.31563°
Altitude
1,247.767 km
Speed
7.168 km/s
True Right ascension
17h 47m 18s
True Declination
0° 00' 00"
Sunlit
Object was in daylight at epoch
Visualization orbit readout
Latitude
Unknown
Longitude
Unknown
Altitude
Unknown
Speed
Unknown
Apparent Right ascension
Unknown
Apparent Declination
Unknown
Sunlit
N/A
Visualization observer readout
Local Sidereal Time
01:08:57
Azimuth
Unknown
Elevation
Unknown
Doppler factor
Unknown
Orbital elements
Apogee altitude
1,252.884 km
Perigee altitude
972.346 km
Semi-major axis
7,490.752 km
Eccentricity
0.01873
Inclination
82.597°
RAAN
266.8289°
Arg. of periapsis
157.8717°
True anomaly
202.24094°
Mean anomaly
203.0638°
Eccentric anomaly
202.65062°
Mean motion
3.34777 °/min
Orbital period
107.53 mins
BSTAR
0.00013287
Loading maneuver chart data...
Computing Atmospheric mass density...
Loading historical data...
Loading historical data...
Loading historical data...
Loading historical data...
Loading historical data...
Loading historical data...
Loading historical data...

Documentation

Showing up to 5 results
|